Wind_Speed
25 27 27 26 25 24 22 21 21 21 22 24 23 21 20 20 19 18 18 18 17 17 17 17 17 16 15 14 14 13 13 13 13 12 11 10 10 10 10 11 11 11 11 11 11 11 11 12 12 11 11 11 10 9 9 9 9 9 9 9 8 7 7 7 5 6 6 6 6 6 7 8 7 8 9 7 8 13 15 14 13 12 12 17 20
25 26 27 27 26 25 23 22 21 21 21 23 24 23 22 22 22 20 19 19 19 18 18 18 18 17 16 16 16 15 15 15 15 14 13 12 11 11 12 13 12 12 13 12 12 12 13 13 12 11 11 12 12 11 10 10 10 10 10 10 9 9 9 9 8 7 7 6 6 7 7 8 8 8 11 11 10 13 15 13 11 7 8 13 18
24 26 27 27 27 26 24 23 22 22 21 22 23 23 23 23 23 23 21 20 20 21 19 18 19 19 18 18 18 18 18 17 16 16 15 14 13 13 13 13 13 12 13 13 13 13 13 13 12 11 11 12 13 12 12 12 12 12 11 11 10 10 10 10 10 9 8 8 8 7 7 8 10 10 11 12 12 13 14 12 9 9 10 10 14
23 26 25 25 25 26 26 24 23 23 22 22 22 23 23 22 23 25 24 21 20 21 21 20 20 21 21 20 20 20 20 19 18 18 17 17 16 15 15 14 14 14 14 14 14 14 14 13 13 12 12 13 13 13 13 13 13 13 13 12 12 11 10 11 12 11 10 10 10 10 10 11 12 11 10 11 11 12 13 14 12 10 12 11 10
23 24 23 22 23 24 26 25 24 24 23 23 23 23 23 23 22 24 24 23 22 21 22 23 22 22 23 22 21 21 21 21 20 19 18 18 17 17 16 16 16 15 15 15 15 15 15 15 14 14 14 15 15 14 13 14 14 14 14 14 14 13 13 13 13 13 13 13 13 13 13 13 13 12 11 11 11 12 13 14 13 12 14 12 9
21 24 22 21 22 22 24 25 25 25 24 24 23 23 23 23 23 23 23 24 23 22 22 23 24 25 25 24 23 23 22 22 22 22 20 19 19 18 17 17 16 16 16 16 16 16 16 16 16 16 16 16 16 16 14 14 15 15 15 15 15 14 15 16 16 15 15 15 15 15 14 14 13 12 12 13 14 15 14 14 12 11 12 12 11
16 19 20 20 20 21 22 24 25 25 25 25 24 24 24 24 23 23 23 24 24 24 23 23 25 27 27 26 25 24 24 24 24 24 23 21 20 19 18 17 17 17 17 17 16 17 17 17 17 17 18 18 18 17 16 16 16 16 16 17 17 17 16 16 16 16 17 17 16 15 13 12 12 12 12 13 16 17 15 13 11 9 10 12 13
10 12 15 18 18 19 21 22 22 23 24 25 25 25 24 24 25 24 23 24 25 25 25 24 25 26 27 28 27 25 26 26 26 26 26 24 22 20 20 19 19 18 18 18 17 17 18 18 18 18 19 19 19 19 18 17 17 17 17 17 18 18 18 17 16 16 16 16 15 14 14 14 14 15 14 13 14 14 12 10 10 11 11 12 13
12 12 15 17 15 16 19 20 20 21 22 24 25 26 26 25 25 25 25 25 25 25 25 25 25 25 26 28 29 28 27 27 28 28 28 28 26 23 22 22 21 20 19 19 18 18 18 18 19 19 20 20 20 20 19 19 19 18 17 18 18 18 19 18 17 17 18 18 17 17 16 17 16 15 14 12 11 11 10 11 11 11 11 12 13
12 14 15 16 14 15 17 18 19 20 21 22 24 26 26 26 26 26 27 26 26 25 26 26 26 26 26 27 29 29 29 28 29 30 30 30 29 27 25 23 23 22 21 20 20 19 19 19 19 20 21 22 23 22 21 20 21 21 19 19 19 19 20 20 19 19 20 20 20 18 16 16 15 14 13 12 12 12 12 12 12 12 12 14 16
12 12 13 16 15 14 16 18 20 20 21 22 23 24 25 26 26 27 28 28 28 28 27 27 27 27 27 27 28 29 30 30 31 32 32 31 31 30 28 26 25 25 24 23 22 21 20 20 19 20 21 23 25 25 23 21 22 22 21 21 22 22 22 21 20 20 20 20 20 17 16 16 15 14 14 13 12 12 12 12 12 13 15 16 16
14 14 14 17 19 18 17 17 19 22 22 22 23 24 24 24 26 27 28 29 29 30 29 29 29 28 28 28 28 29 30 31 33 35 35 33 32 32 31 28 26 26 26 25 25 23 22 21 21 20 21 23 25 26 24 22 22 24 24 24 25 26 25 23 22 21 20 20 19 18 17 17 16 15 14 13 13 13 14 15 15 16 17 17 17
14 17 15 17 20 21 20 20 19 20 21 21 21 22 23 24 25 26 27 28 28 30 32 31 31 31 30 30 29 29 29 31 33 36 37 36 34 33 32 30 28 27 27 27 26 26 26 24 23 22 21 22 24 25 25 23 22 24 25 26 26 27 27 27 26 25 24 23 23 22 21 19 19 18 17 16 17 19 20 21 21 21 20 18 19
10 15 17 17 18 17 18 21 22 20 19 19 20 21 22 23 24 24 25 26 27 29 31 32 32 33 34 33 32 30 30 30 32 34 36 37 36 35 34 32 30 28 29 28 28 27 28 27 26 26 24 23 22 23 24 25 25 24 25 27 28 28 28 28 28 28 28 28 29 28 27 25 25 25 24 24 24 24 24 24 23 23 22 21 22
5 9 15 19 20 18 17 16 18 20 20 19 20 21 21 22 23 23 23 23 25 27 29 30 31 33 35 36 35 34 32 31 32 33 34 36 36 36 36 36 34 32 30 30 30 30 29 28 28 28 28 28 26 24 24 26 28 26 25 26 28 29 29 30 29 29 29 30 31 31 30 29 28 28 27 26 25 24 24 24 23 22 22 24 26
8 6 8 12 18 21 20 18 17 18 19 20 20 21 21 22 22 22 22 23 23 25 26 28 29 30 32 34 35 35 34 33 34 35 35 35 35 35 35 37 37 37 35 33 34 33 33 33 31 29 29 31 31 30 29 29 30 30 28 27 27 29 30 31 31 30 30 31 31 31 30 30 29 29 28 26 25 25 24 24 25 25 24 25 27
10 9 7 7 11 16 20 22 22 21 18 17 18 19 21 22 21 20 22 24 24 24 24 24 24 26 28 30 31 33 33 33 34 36 38 38 37 37 37 36 38 39 40 39 36 35 36 38 38 36 35 34 34 35 34 33 32 32 32 31 30 30 30 29 29 30 31 31 32 32 31 31 30 29 29 28 28 27 27 28 29 27 23 22 23
11 10 8 7 8 11 14 18 22 23 22 19 16 16 18 21 22 21 21 21 23 25 27 26 24 23 24 26 28 30 30 30 31 34 37 38 38 39 39 38 38 39 40 42 41 39 38 39 39 40 40 39 38 39 38 36 35 34 34 33 32 33 32 29 27 28 29 30 31 31 31 31 31 30 30 31 30 30 30 31 31 28 24 23 23
14 13 10 7 6 7 10 12 14 17 19 18 17 18 21 20 19 20 21 21 23 25 27 28 28 26 25 25 26 27 27 26 27 30 34 36 37 37 37 38 39 39 40 42 43 43 43 42 42 43 43 43 41 41 41 39 38 37 36 35 35 36 35 31 28 27 26 27 30 31 31 32 32 31 30 29 29 30 31 32 31 30 28 28 28
15 15 14 11 8 8 11 13 12 14 16 16 16 19 24 24 19 17 18 21 24 26 26 27 28 29 29 27 26 26 27 26 24 26 28 32 34 35 36 37 39 40 41 41 42 44 45 46 47 47 47 47 45 44 43 42 41 39 38 38 38 38 36 33 31 29 27 27 27 28 30 31 31 30 28 28 28 28 30 30 30 31 31 31 30
17 16 16 15 13 11 12 14 14 15 16 16 16 17 20 24 26 25 22 21 25 27 28 27 28 28 27 27 27 27 28 27 26 25 25 26 30 33 35 36 37 39 41 42 43 44 45 46 48 49 49 49 48 47 46 45 43 41 41 41 40 38 36 33 31 29 28 29 29 27 26 27 28 29 28 28 28 28 28 29 29 28 28 29 29
21 19 17 17 17 16 14 13 13 14 15 15 16 17 17 17 23 29 30 28 28 29 28 28 28 28 26 25 26 27 27 26 27 28 27 27 28 31 34 36 36 37 40 42 43 44 44 44 44 46 48 49 48 48 48 47 45 44 43 42 40 39 38 36 33 29 27 26 27 26 26 25 25 25 25 24 23 23 23 25 27 27 25 25 25
24 23 20 19 19 19 17 15 14 13 13 13 15 16 17 17 17 22 28 30 31 32 31 28 28 29 28 26 26 27 26 26 27 28 30 29 29 30 32 34 35 36 39 41 42 42 41 40 39 40 43 46 47 48 48 47 46 46 44 43 41 40 39 38 36 34 32 29 27 26 26 26 26 26 25 24 24 23 22 23 25 27 28 28 27
23 23 23 22 21 19 18 18 16 14 13 14 14 14 15 17 17 17 20 25 29 33 35 32 29 30 31 31 29 27 26 26 27 29 30 30 30 30 31 32 32 34 38 40 40 39 37 36 35 35 36 40 42 43 44 44 44 45 44 42 40 40 39 38 37 37 37 37 36 35 34 33 32 31 29 26 24 24 23 23 23 25 27 29 29
20 21 22 24 23 21 19 19 16 13 14 16 15 14 14 14 16 16 16 19 22 27 31 32 30 30 32 34 33 29 26 26 27 28 29 29 30 31 31 30 29 30 35 39 41 40 38 35 33 33 34 36 37 38 38 40 41 41 40 38 37 37 38 38 38 39 39 40 41 41 41 40 40 38 35 31 28 27 26 26 26 27 27 27 27
19 19 20 22 23 22 20 18 16 15 15 15 15 16 15 13 14 15 15 16 17 18 22 25 25 27 30 33 34 32 29 25 25 26 26 27 27 29 30 30 27 25 29 35 40 42 40 36 33 34 35 36 37 37 38 39 38 36 35 34 34 36 38 39 39 41 42 43 43 43 43 43 42 41 38 36 34 33 31 29 29 29 29 29 29
20 19 19 19 20 21 19 18 19 18 15 14 14 15 15 14 14 15 15 17 17 16 18 20 22 23 24 26 30 31 30 27 25 24 24 23 23 25 27 29 27 23 24 28 35 41 43 40 35 34 35 37 38 39 39 39 36 34 33 33 34 36 38 40 41 42 43 44 44 44 44 42 40 38 36 36 37 37 35 33 32 31 31 30 30
19 20 19 18 18 17 16 17 19 18 17 16 16 15 13 14 15 14 15 18 20 20 18 18 21 23 21 19 21 23 24 24 24 24 22 20 21 22 24 26 26 25 23 23 25 32 38 40 38 37 36 38 41 42 42 41 39 36 35 35 36 38 39 40 41 43 44 44 44 44 43 40 38 36 34 34 35 35 35 34 34 33 32 30 29
18 19 19 17 16 15 15 16 18 20 22 22 21 18 15 14 15 15 13 14 19 22 21 20 20 23 24 23 22 23 22 21 20 20 20 19 19 19 19 21 22 23 21 20 18 19 25 33 38 39 38 39 41 42 39 36 33 31 30 30 33 36 39 42 44 45 45 45 45 45 44 42 41 38 35 34 34 34 33 32 32 31 31 30 29
17 18 17 16 15 15 16 17 18 21 23 24 24 25 22 18 17 18 16 12 13 16 20 21 21 22 24 26 27 29 30 28 26 24 21 20 18 16 16 17 18 18 18 19 19 17 19 26 33 37 39 40 39 37 34 31 29 28 28 29 30 30 33 38 42 45 46 47 46 46 45 43 41 38 35 34 34 34 33 33 33 32 31 31 31
18 17 16 16 16 18 18 18 17 18 20 22 25 28 28 25 22 21 20 16 13 11 14 18 19 19 21 22 24 27 30 31 32 31 29 27 24 20 17 17 16 15 16 19 21 21 22 24 27 32 38 41 40 36 33 31 30 30 30 30 29 29 29 30 33 36 40 44 45 46 46 45 43 40 36 34 34 33 32 34 35 35 34 34 34
19 18 17 17 18 18 18 17 18 18 18 19 22 25 29 30 28 24 22 20 18 15 14 16 17 17 17 17 18 22 25 27 29 30 31 31 31 29 25 22 21 20 19 21 26 29 29 27 27 30 35 39 39 36 33 32 31 30 30 29 29 29 29 29 28 29 31 35 39 42 45 46 46 44 41 38 36 34 33 35 36 36 37 37 38
18 18 18 18 18 19 18 17 17 18 18 18 18 21 25 29 30 28 26 24 23 20 19 20 21 20 18 16 16 17 19 21 23 24 26 27 29 30 28 26 26 27 27 29 33 36 35 32 32 33 35 37 38 35 33 34 33 32 31 31 30 29 29 29 28 28 28 29 31 34 37 39 41 43 43 42 41 39 38 38 38 37 37 39 40
17 17 17 17 18 19 19 18 17 18 19 19 18 18 21 25 29 30 29 27 25 22 19 20 23 25 23 20 19 18 16 14 15 18 20 22 24 25 25 24 25 28 32 36 39 40 39 37 37 37 36 36 35 32 31 33 34 34 33 33 31 30 30 30 30 31 30 30 31 32 33 33 33 35 38 39 39 39 39 40 39 38 37 38 38
16 16 15 16 18 19 19 18 18 18 18 19 19 19 20 23 27 29 29 27 23 21 18 17 19 23 25 24 23 21 18 15 12 13 15 18 21 24 25 25 25 26 29 33 36 38 39 38 38 38 35 31 29 29 30 31 32 34 36 35 33 32 32 31 31 32 31 31 32 32 32 32 32 33 34 34 34 35 36 37 37 37 38 38 37
14 13 13 15 17 19 18 17 17 17 17 17 18 20 21 22 23 24 25 24 22 22 21 18 17 20 22 23 23 24 22 19 17 15 14 15 17 21 25 28 28 27 26 28 30 32 35 38 40 42 38 31 28 29 30 29 30 32 34 35 34 33 32 32 32 33 33 34 33 32 32 32 32 32 32 33 34 35 35 35 35 37 38 38 37
16 14 13 14 16 17 17 18 19 20 21 21 21 20 19 19 20 20 21 23 23 24 24 22 19 17 16 17 20 23 24 22 20 18 16 15 15 17 20 23 27 28 28 28 28 29 32 35 38 40 39 34 30 31 31 30 29 31 32 34 35 35 34 33 33 33 34 35 35 34 35 35 33 31 32 33 34 35 35 36 36 37 38 38 37
20 18 16 18 20 19 18 18 19 20 21 22 21 18 17 18 19 19 20 21 22 23 23 21 20 18 17 16 17 20 21 22 22 21 18 16 15 15 15 16 19 23 26 27 27 27 27 28 29 31 32 31 29 31 33 32 31 30 31 32 34 35 35 36 35 35 36 37 36 35 36 36 35 33 33 35 36 37 37 37 37 38 39 38 38
19 18 18 21 24 22 19 18 18 17 19 20 19 18 17 18 19 20 19 19 19 20 21 21 21 20 18 17 19 20 19 19 20 22 21 18 15 14 14 14 15 18 21 24 25 26 27 27 27 28 29 28 28 30 33 34 34 33 32 32 32 33 34 35 35 36 38 39 38 36 37 37 37 35 35 36 37 37 38 38 39 39 39 40 39
16 17 17 19 21 21 20 19 18 17 19 20 19 18 18 18 18 19 19 19 18 18 18 19 19 17 16 19 25 27 24 19 18 20 21 20 17 14 14 14 15 16 17 19 21 23 25 27 28 28 29 28 27 26 28 31 33 34 34 34 34 33 33 33 34 36 37 37 35 34 35 36 37 37 38 38 38 37 38 39 40 40 40 40 40
16 17 17 18 19 20 19 18 17 17 18 19 19 18 18 18 18 18 18 18 18 17 16 16 15 14 16 22 28 29 26 22 17 15 17 19 20 19 16 15 16 17 18 17 18 21 23 25 26 27 29 30 29 26 26 27 30 32 33 34 35 35 34 34 35 37 38 37 35 34 34 34 35 36 37 37 38 39 40 40 40 40 41 42 42
16 17 18 18 18 19 18 17 17 18 19 19 18 18 17 17 18 18 17 17 17 15 15 15 14 14 17 23 27 27 26 23 18 15 15 18 19 21 20 18 18 19 20 19 19 21 22 24 25 25 25 26 28 29 28 29 29 30 30 31 33 35 36 36 35 36 38 38 37 38 38 37 38 38 38 37 38 37 37 38 39 40 41 43 43
17 18 19 20 19 19 18 17 17 18 19 19 18 18 18 19 19 19 18 18 16 15 15 15 14 14 16 22 25 25 25 24 21 20 19 18 17 19 21 21 21 22 22 23 23 23 23 24 26 26 25 24 25 26 28 29 29 29 30 31 31 32 34 35 34 35 37 37 37 38 39 39 39 39 39 39 38 36 35 37 40 40 42 43 43
17 18 19 20 20 20 19 18 18 19 20 19 18 18 18 18 18 18 18 18 17 16 14 14 15 15 15 19 23 25 24 24 24 24 22 19 17 18 20 21 23 24 24 26 27 27 26 26 27 28 28 28 28 28 29 29 30 30 31 33 33 32 32 32 32 32 34 35 36 37 39 40 40 39 39 39 37 36 36 39 41 42 43 42 41
17 18 19 19 20 20 19 19 19 20 20 19 18 17 17 16 16 16 16 16 16 15 14 13 14 15 14 16 21 25 25 24 23 23 22 21 19 18 18 20 22 24 26 27 29 30 30 30 31 31 31 30 30 31 32 33 33 33 34 35 36 37 36 36 35 34 34 35 36 36 36 37 37 37 37 37 36 36 38 39 39 40 42 43 43
18 18 19 19 19 19 19 19 19 19 19 18 17 16 16 16 16 16 15 15 15 15 15 14 14 15 15 16 20 23 24 23 22 21 21 21 20 18 17 19 21 23 25 27 29 31 32 33 34 35 35 34 33 33 34 34 35 36 37 38 39 40 42 43 43 41 40 39 39 38 37 36 36 36 36 36 36 37 39 39 38 37 39 42 45
19 19 19 18 18 19 19 19 19 19 18 17 16 15 15 17 17 16 16 15 14 14 14 13 13 14 16 17 19 21 22 22 22 20 19 18 19 20 19 19 19 21 23 26 28 30 32 33 35 36 37 38 38 38 38 38 39 39 40 40 41 42 43 45 45 45 45 45 44 43 42 41 42 41 40 37 37 38 41 43 43 41 41 42 44
18 18 17 17 18 18 18 18 18 17 17 17 16 15 15 16 17 16 14 14 13 13 13 12 13 15 16 17 19 21 21 21 22 21 20 18 17 18 19 19 19 19 20 22 24 26 28 29 31 33 35 37 39 40 41 42 42 43 43 44 44 44 45 46 46 45 46 47 48 48 47 46 46 46 45 42 39 39 41 42 43 42 43 44 46
17 16 16 17 17 18 17 17 16 15 15 16 16 15 15 15 16 16 14 13 12 12 12 12 13 15 17 18 19 20 21 21 21 21 20 19 17 17 17 17 18 18 18 18 20 22 23 24 26 27 29 31 34 36 37 39 40 42 43 44 45 46 47 48 49 49 49 49 51 52 52 52 51 51 49 47 44 42 41 41 42 42 43 45 47
15 15 15 16 17 17 16 16 15 14 14 14 15 17 17 17 17 16 14 12 11 12 12 12 13 14 16 16 17 19 19 19 19 19 19 18 16 15 15 15 15 16 16 16 16 18 19 20 21 22 23 24 25 27 29 31 32 34 36 37 39 40 40 41 43 44 45 46 48 49 50 51 51 51 51 51 50 48 48 47 47 46 46 46 47
15 15 16 16 16 16 15 15 14 14 13 12 13 15 17 16 15 15 14 12 11 11 10 10 11 13 14 15 16 16 16 15 16 16 16 15 13 12 11 11 11 12 13 13 14 14 14 15 16 16 17 18 18 19 21 23 24 25 27 29 30 31 32 31 32 33 35 37 40 42 43 45 46 47 48 49 50 50 50 49 46 45 45 44 44
Wind_Direction
207 212 213 212 214 218 217 214 213 212 209 209 208 208 210 210 209 208 209 209 209 215 218 212 211 213 211 211 210 214 219 216 214 218 216 215 216 211 214 222 220 215 216 214 210 215 224 226 227 230 229 225 223 223 225 230 227 214 212 219 224 232 232 226 240 263 267 265 269 277 278 282 292 291 298 308 299 306 320 327 334 341 329 320 323
208 212 213 212 213 217 219 217 215 214 210 211 211 210 212 213 210 207 209 211 209 212 218 216 213 213 211 212 210 209 217 221 215 216 221 221 219 214 218 224 221 217 219 219 214 215 223 226 227 230 234 230 225 223 222 226 227 223 221 222 222 227 235 240 242 249 263 269 262 267 279 289 293 292 299 306 303 308 319 327 335 328 301 308 314
211 211 213 215 215 216 217 215 217 217 211 210 212 211 212 215 215 211 210 212 213 213 214 215 217 218 216 217 216 211 214 221 219 214 218 223 221 215 218 227 228 222 222 223 221 221 224 228 227 224 229 233 229 224 222 224 226 225 224 223 224 226 232 246 253 251 257 262 261 267 271 272 282 293 301 308 312 316 321 322 320 303 294 308 312
211 210 211 214 216 217 217 213 214 215 211 210 212 211 211 213 216 218 214 212 215 217 215 212 216 222 222 221 225 223 218 221 223 218 217 222 223 218 215 221 226 226 226 226 226 227 227 228 228 222 222 229 232 227 222 223 225 226 226 224 224 226 227 237 250 255 258 263 267 273 274 277 291 300 300 302 304 308 312 313 311 301 297 310 316
207 206 209 210 209 213 217 213 210 211 211 211 212 212 212 212 214 218 217 213 214 217 219 215 213 220 225 225 228 230 226 225 226 223 220 221 224 222 220 221 223 225 227 226 225 228 229 229 228 224 220 224 229 229 224 223 224 224 226 228 230 233 232 235 244 252 257 263 271 278 283 292 300 300 295 297 300 303 306 304 303 301 300 311 319
207 204 208 210 206 208 215 214 210 211 212 213 214 214 214 214 214 216 217 215 213 215 219 219 217 220 226 228 229 231 231 229 229 227 223 221 224 224 223 225 227 227 229 230 227 227 229 230 229 226 224 225 227 228 225 224 225 225 224 226 228 232 236 239 244 249 255 261 269 277 283 289 291 290 294 301 303 304 304 300 295 294 295 303 309
210 207 209 208 206 209 213 214 213 212 213 214 214 216 217 216 216 216 217 217 216 215 216 220 223 225 228 229 228 229 232 231 231 231 226 220 221 225 224 224 228 229 229 231 230 229 230 231 230 229 228 227 227 228 227 226 227 227 226 226 226 227 232 239 243 248 255 262 267 272 276 278 275 274 283 292 296 302 309 306 296 288 287 293 302
209 217 217 213 213 214 214 215 215 213 214 216 216 216 218 219 218 218 218 219 218 218 218 218 223 226 229 230 228 226 231 233 232 232 229 224 220 222 224 223 224 227 230 229 229 230 231 231 232 232 232 231 229 228 227 227 228 230 231 232 231 230 231 233 236 243 249 253 256 259 261 263 265 269 277 279 281 292 304 297 286 285 290 297 301
214 219 226 222 218 217 214 215 217 215 215 217 218 218 218 219 221 220 220 221 221 221 221 220 222 224 226 230 230 225 226 231 233 232 230 228 224 222 224 225 223 224 227 230 229 230 231 231 232 233 235 238 239 235 229 226 228 230 231 234 234 234 234 231 230 235 241 245 249 253 258 262 267 274 280 274 268 277 283 278 278 285 292 295 296
225 215 225 228 228 228 222 217 216 216 216 216 218 221 220 219 222 222 222 223 224 224 224 223 223 224 224 228 231 228 224 226 232 234 233 231 229 226 224 226 227 225 225 227 229 230 231 232 233 234 237 242 246 246 239 233 234 234 232 233 236 236 237 236 234 236 242 248 252 254 257 260 264 269 274 272 273 279 280 278 280 285 289 291 293
235 222 225 229 234 237 231 225 220 216 218 218 219 222 224 222 222 224 224 225 225 226 226 225 225 225 226 226 228 230 227 226 230 236 236 234 232 231 228 226 228 229 228 228 229 230 231 233 234 235 237 241 246 251 249 242 240 241 237 235 238 240 240 240 241 243 246 250 253 254 255 257 260 263 266 272 278 282 280 278 277 279 283 287 289
241 240 237 234 238 240 237 234 228 222 221 223 223 225 227 227 224 223 224 225 226 226 226 226 226 226 228 228 228 229 231 230 232 236 240 238 235 233 232 229 229 231 232 232 232 233 233 233 234 235 237 238 242 250 254 249 242 242 243 241 241 245 248 247 247 247 247 249 251 252 253 257 260 262 265 270 272 272 273 274 276 280 283 283 283
246 245 245 242 244 248 247 240 236 232 227 225 226 227 229 230 228 226 225 225 226 227 228 229 229 228 228 229 229 230 232 234 236 238 241 242 240 236 233 230 230 233 234 235 235 235 235 235 234 234 236 241 246 252 258 258 249 243 245 247 246 246 249 252 252 251 251 251 252 253 253 255 257 258 261 266 268 272 277 282 286 289 289 285 283
256 246 247 247 250 264 266 250 241 241 236 228 227 227 227 231 232 230 228 227 227 228 230 232 233 233 233 232 231 232 233 235 240 243 245 245 243 240 237 233 232 233 235 236 236 237 238 238 237 236 235 237 244 249 253 257 256 248 245 247 249 250 251 253 254 255 255 256 257 259 261 262 263 266 270 273 275 278 282 286 289 291 289 286 286
309 257 251 250 251 265 282 275 256 247 243 238 235 233 230 232 235 234 233 232 231 231 233 234 236 238 240 239 236 235 234 234 238 243 247 249 248 245 241 238 236 236 236 237 238 238 239 238 238 240 239 239 239 239 241 248 256 257 253 249 250 252 254 255 256 257 258 260 262 264 266 268 270 272 275 276 277 280 284 286 288 288 286 286 289
345 312 270 253 250 254 265 276 275 266 255 246 243 243 239 238 241 241 240 239 238 238 238 237 238 240 242 242 241 239 238 237 237 240 244 248 250 250 247 243 240 239 238 239 240 240 240 240 240 239 241 242 242 240 239 243 252 259 260 258 256 255 256 257 259 259 259 261 263 265 268 270 271 272 273 272 272 275 279 281 283 284 283 284 289
348 342 318 282 266 259 259 263 268 273 272 263 258 255 249 246 247 247 247 247 247 248 247 245 245 244 243 243 243 242 241 239 240 242 244 246 249 251 252 251 247 244 242 241 241 241 242 244 245 244 244 245 246 247 247 246 249 253 256 259 261 260 259 259 261 263 264 263 265 266 267 268 268 269 270 271 271 272 272 273 277 279 276 275 279
350 352 346 323 298 283 276 271 267 270 273 274 278 276 263 254 251 251 254 254 253 253 251 250 250 248 247 248 247 247 246 244 243 245 247 248 250 252 254 255 254 251 248 245 243 242 243 245 247 248 249 248 248 250 251 251 251 251 252 253 256 258 259 257 257 261 265 267 268 269 270 270 269 268 268 269 270 270 269 271 275 274 268 267 271
345 346 349 348 332 319 313 301 289 287 285 282 283 279 270 264 257 252 252 253 252 252 250 249 248 245 245 248 248 249 251 250 249 250 251 252 253 253 254 256 256 255 253 250 248 246 246 246 247 248 250 250 250 250 251 251 252 252 252 252 252 254 256 256 254 254 257 262 266 267 269 271 272 272 271 269 268 268 268 271 273 271 268 269 272
334 335 341 344 342 347 343 332 329 333 325 312 299 281 271 270 268 260 256 255 254 254 252 252 251 247 245 246 248 250 252 252 255 258 258 258 259 258 256 256 256 256 255 254 252 251 249 249 249 249 251 251 251 251 252 252 252 252 252 252 252 255 256 255 252 251 251 254 260 264 266 268 270 271 272 270 268 268 268 269 271 270 270 271 271
326 325 329 334 337 341 339 334 339 351 350 340 325 303 284 273 265 261 262 261 257 256 254 254 254 251 249 249 249 250 251 252 255 258 260 262 264 263 262 259 258 257 257 257 255 254 253 252 252 251 251 252 252 252 252 253 253 253 253 253 254 257 257 253 250 250 251 252 253 255 259 264 266 269 271 271 271 272 272 272 273 272 271 271 267
325 322 321 324 328 331 334 336 339 344 352 353 339 322 311 294 272 261 261 262 261 260 260 260 258 255 251 249 249 250 252 253 253 254 256 258 260 262 265 265 262 259 257 257 257 256 255 255 254 254 254 253 253 252 253 253 253 253 253 254 255 257 256 253 248 244 245 248 249 249 250 252 256 260 263 262 262 265 269 273 279 281 278 275 271
318 320 322 321 319 322 328 333 332 330 335 346 347 334 322 314 297 272 263 264 264 261 260 263 264 261 257 252 250 249 251 252 253 254 256 257 257 258 262 266 267 265 260 257 257 258 257 255 254 255 256 256 255 253 253 253 253 253 253 254 255 255 255 254 250 245 243 242 242 243 246 248 249 251 253 252 252 254 255 259 268 276 278 278 277
312 315 320 320 318 321 323 321 327 332 325 324 338 341 325 315 310 294 274 270 268 263 259 260 262 263 263 260 255 250 248 251 254 256 258 260 261 263 264 264 265 268 265 261 258 256 256 256 255 254 256 258 258 257 256 254 253 253 253 252 252 252 252 251 250 249 248 246 244 244 246 248 251 251 251 250 251 254 254 251 252 259 266 272 276
308 313 318 319 319 321 320 318 324 328 317 313 323 335 331 318 311 303 283 270 269 266 260 258 261 264 265 263 261 258 253 251 252 253 254 258 262 266 268 266 266 268 268 265 262 258 254 254 256 256 255 256 257 256 256 255 254 252 251 250 248 247 247 247 247 248 249 248 248 249 249 251 254 255 255 253 252 253 253 251 250 251 254 258 263
303 309 315 317 318 319 320 320 317 309 308 317 323 326 326 320 313 307 289 270 268 269 263 258 259 266 269 267 266 264 259 254 251 250 251 256 262 267 270 270 272 273 268 265 264 263 258 252 250 251 252 254 254 253 253 255 255 254 251 248 245 242 241 242 243 244 246 248 249 250 252 254 256 257 257 256 255 254 252 251 252 253 252 251 253
301 303 308 313 316 318 316 314 313 310 311 318 318 315 316 315 314 314 303 283 271 266 263 260 259 266 273 272 268 267 264 259 254 252 253 259 267 272 273 273 274 274 272 270 268 266 264 260 255 252 250 249 250 251 253 254 256 256 253 248 244 241 239 240 242 243 246 248 249 251 253 254 254 255 254 255 256 257 255 252 252 253 253 254 253
297 299 303 308 313 315 312 310 314 314 311 307 305 307 312 310 306 310 315 305 288 274 267 265 264 266 271 273 272 271 270 266 259 255 256 261 268 274 278 279 278 277 284 291 286 274 268 266 264 262 258 253 250 249 250 251 252 252 252 248 245 242 239 239 241 243 244 246 248 250 251 251 250 250 250 250 253 255 256 255 255 254 254 253 251
291 296 302 308 311 310 307 308 311 311 309 307 303 299 295 293 291 293 305 316 306 290 277 273 275 275 272 270 271 272 274 274 267 259 257 259 264 269 275 280 281 281 288 301 304 288 270 263 259 258 260 258 253 248 247 248 249 249 248 246 245 243 241 240 240 241 243 245 247 248 249 249 249 248 246 246 249 251 251 254 256 256 252 250 249
288 295 301 306 305 303 305 308 309 310 311 310 306 299 292 287 289 293 298 309 314 302 285 280 288 290 281 272 269 268 270 274 275 271 268 266 265 265 266 269 276 282 286 290 295 292 275 262 258 256 256 256 253 247 244 243 245 246 245 242 242 242 242 243 244 244 244 245 246 248 249 249 249 247 242 242 245 246 246 249 252 252 251 249 251
282 289 295 300 301 302 306 308 308 309 309 307 306 305 302 296 295 299 302 302 302 298 288 286 294 300 294 285 277 271 270 272 274 274 272 269 266 262 259 259 263 269 273 274 275 276 271 267 266 263 259 255 251 246 242 240 240 243 244 242 241 240 240 242 244 245 247 249 249 249 249 248 248 246 242 239 241 242 243 246 248 248 248 249 252
276 280 287 295 301 304 306 307 307 307 306 305 306 307 307 305 303 301 301 300 296 297 300 302 302 302 300 299 294 284 277 275 274 273 271 270 267 265 264 261 257 255 258 260 262 265 266 268 270 268 262 257 252 247 244 242 241 242 242 241 241 241 240 240 241 242 244 247 250 252 252 252 251 249 246 244 243 242 241 243 244 245 248 250 253
268 274 282 290 298 302 302 301 304 305 304 303 304 306 308 309 308 306 303 300 300 303 308 311 309 303 300 305 310 306 294 285 280 279 276 274 271 269 269 267 259 253 253 256 260 264 266 268 271 268 261 255 252 249 247 246 244 243 243 242 243 243 243 243 244 244 242 242 244 247 249 251 252 251 250 248 246 244 243 243 243 242 244 248 252
269 275 283 291 296 300 300 300 302 303 302 301 299 301 306 308 308 308 307 304 303 305 306 310 312 307 302 302 307 312 313 303 289 283 280 277 273 270 268 266 258 251 250 252 258 264 265 265 266 265 259 254 252 251 250 250 249 247 246 245 245 246 245 245 245 247 247 246 244 243 242 242 244 246 246 246 245 243 242 243 242 240 239 242 245
274 280 286 291 295 298 300 299 296 294 297 299 295 294 299 303 305 307 307 305 304 303 302 304 304 301 302 304 301 300 309 316 306 290 281 276 271 266 263 261 258 253 251 252 257 262 263 261 261 261 258 255 253 252 251 251 251 250 249 248 247 247 247 245 244 244 244 244 243 244 243 241 240 241 241 242 241 241 242 243 242 240 239 239 239
279 285 290 292 294 296 296 293 288 285 288 291 290 290 295 300 303 305 304 302 302 301 300 296 288 290 303 310 301 292 296 311 317 310 300 290 277 266 261 260 259 257 256 256 259 263 262 259 257 257 257 255 252 251 251 249 249 250 250 250 249 248 247 246 245 244 243 242 242 243 243 242 242 242 243 244 244 243 243 243 242 242 242 241 240
284 291 295 291 289 290 292 291 290 289 288 288 290 294 297 298 297 297 297 298 299 300 301 299 296 297 307 309 299 290 291 302 312 314 311 304 291 275 266 262 259 259 259 260 263 265 264 260 258 257 257 254 251 251 250 249 250 251 252 252 251 249 248 247 246 246 245 244 244 244 244 245 245 243 244 245 246 245 246 246 246 247 246 244 244
287 290 291 288 287 288 292 295 295 294 291 290 292 294 292 290 290 291 292 295 298 300 300 299 298 301 304 301 296 293 293 296 302 307 310 307 294 280 275 273 269 263 259 259 262 262 259 257 257 258 258 255 251 250 251 250 251 252 253 254 254 252 251 250 248 247 247 246 245 245 246 248 248 246 244 245 246 247 247 248 249 250 250 248 248
290 288 286 286 287 290 293 295 294 291 288 288 290 289 286 286 288 289 291 293 294 295 296 295 294 299 302 297 291 292 296 299 299 300 303 304 296 281 274 279 283 277 266 261 261 259 255 254 254 256 259 260 257 254 252 252 252 252 253 254 255 255 255 254 251 250 250 250 249 249 249 250 251 250 248 248 248 248 248 248 248 249 250 250 250
289 287 284 282 284 288 291 292 289 287 287 289 289 287 285 285 285 285 288 290 291 292 295 295 296 298 297 293 292 294 300 307 305 299 297 299 298 286 266 260 270 277 274 270 269 268 266 264 260 258 259 262 262 260 258 256 255 255 254 254 254 254 254 255 254 254 254 253 252 252 251 252 253 252 251 251 251 251 251 250 249 249 251 250 249
287 285 283 282 283 287 289 288 286 285 286 286 286 283 282 283 283 283 284 286 288 291 293 293 295 293 289 291 295 299 301 305 306 302 296 295 296 290 274 256 255 260 263 265 268 267 266 267 267 266 264 263 263 263 263 260 258 257 255 254 253 254 253 253 254 256 256 256 256 255 254 254 255 254 253 253 253 254 254 253 251 252 252 251 249
292 289 288 287 287 288 286 284 282 281 280 281 282 280 277 277 277 279 281 282 285 289 290 290 293 293 290 292 297 300 301 303 301 294 287 286 289 289 283 269 254 247 244 247 251 252 251 253 257 260 263 263 262 262 262 262 262 262 262 259 257 257 256 256 255 256 257 257 258 258 258 258 258 258 258 257 255 255 256 255 253 252 251 251 251
296 295 293 292 289 286 283 280 280 280 280 281 279 274 272 273 275 278 280 282 283 285 288 289 291 292 293 296 299 300 301 302 298 293 289 287 287 287 283 272 257 246 240 239 242 244 247 249 250 251 252 253 253 255 257 258 259 260 262 263 261 260 260 260 259 259 259 260 261 262 261 260 259 259 259 258 255 255 255 255 255 255 254 253 252
296 295 294 292 290 286 282 280 280 281 282 281 277 272 272 277 280 280 281 282 282 283 285 288 291 293 295 297 299 301 301 300 297 294 293 291 287 283 279 270 260 252 247 244 242 243 245 248 250 250 250 249 249 250 252 254 255 256 257 259 259 258 259 261 263 264 265 265 265 264 263 262 261 261 259 257 255 256 258 259 258 257 255 252 248
296 296 295 292 289 286 284 282 282 283 283 282 279 275 274 276 279 280 280 280 281 283 283 285 289 293 296 297 299 302 304 302 298 295 293 291 287 281 276 271 264 257 252 250 247 246 246 248 249 251 252 252 252 252 252 252 253 255 257 260 261 261 260 261 261 262 263 265 265 265 264 265 265 264 262 260 260 262 264 264 261 258 255 252 249
297 297 295 293 290 287 286 285 286 286 285 282 281 279 277 277 278 279 277 277 279 282 285 287 288 290 293 296 300 303 305 304 303 299 293 291 290 286 278 272 266 261 257 255 252 251 251 251 251 252 254 255 255 255 255 254 254 254 256 258 261 263 264 264 263 263 263 264 265 265 264 263 263 263 264 266 265 263 262 262 261 260 259 258 256
299 296 294 292 290 288 288 287 286 285 283 280 279 279 277 276 277 277 276 277 279 281 285 289 289 289 291 295 300 303 305 306 306 304 299 294 293 292 287 280 272 266 261 258 256 255 255 255 254 254 256 258 259 259 259 259 259 259 259 259 260 261 262 262 263 263 263 263 264 265 264 263 264 265 265 266 266 264 262 260 260 260 261 261 260
298 294 292 291 290 290 290 289 286 284 281 278 277 278 278 278 277 277 277 279 281 284 288 289 288 289 293 297 300 302 305 306 306 306 306 302 296 293 292 289 285 278 270 264 261 260 259 260 259 259 259 260 262 262 262 262 262 263 263 264 264 264 265 265 266 266 265 265 266 266 266 267 268 267 264 262 263 265 263 261 260 260 261 263 263
296 290 289 291 293 293 292 290 286 283 280 278 278 278 279 280 279 277 276 277 280 283 286 288 288 290 295 299 301 303 306 308 308 307 307 306 301 297 295 293 291 288 282 275 271 269 268 268 267 266 265 265 265 265 265 266 265 265 265 265 265 266 267 267 268 268 267 266 265 265 265 265 266 265 264 262 262 262 261 259 259 260 262 264 266
296 290 288 292 295 294 292 290 286 282 279 280 279 278 279 282 282 279 276 279 283 284 284 287 290 292 295 300 304 307 310 311 310 308 307 306 305 303 299 295 293 292 291 287 283 281 279 278 277 276 275 275 274 274 273 273 272 270 269 268 267 267 267 268 268 268 268 267 266 266 266 265 265 265 266 265 265 265 264 264 265 265 264 264 265
296 292 291 295 297 295 292 290 288 285 283 283 283 282 282 283 284 280 274 276 284 288 287 288 290 291 294 299 305 308 309 309 309 308 307 307 306 303 299 296 292 290 293 295 296 295 294 292 290 289 288 287 288 288 287 286 284 282 280 277 275 274 273 273 273 274 273 272 271 270 270 270 270 270 270 269 269 268 268 268 267 266 265 264 266
Height
1552 1553 1555 1557 1559 1560 1562 1564 1565 1567 1569 1570 1572 1574 1576 1577 1579 1581 1582 1583 1584 1585 1585 1586 1588 1588 1590 1591 1592 1593 1593 1594 1595 1595 1596 1596 1597 1598 1598 1599 1599 1600 1601 1601 1602 1603 1603 1603 1604 1604 1605 1606 1607 1608 1608 1609 1609 1609 1610 1611 1611 1611 1611 1611 1612 1612 1611 1612 1612 1612 1612 1611 1611 1610 1609 1608 1608 1606 1605 1604 1603 1602 1601 1598 1597
1549 1551 1552 1555 1556 1558 1560 1562 1563 1565 1567 1568 1570 1572 1573 1575 1576 1578 1580 1581 1582 1583 1584 1585 1586 1587 1588 1589 1590 1591 1592 1592 1593 1594 1594 1595 1596 1597 1597 1598 1598 1599 1599 1600 1600 1601 1601 1602 1602 1603 1603 1604 1605 1606 1607 1608 1609 1609 1609 1609 1610 1611 1610 1610 1610 1610 1610 1611 1611 1611 1611 1610 1610 1609 1608 1607 1606 1605 1604 1604 1603 1604 1604 1600 1597
1547 1548 1550 1552 1554 1556 1558 1560 1561 1563 1565 1566 1568 1570 1571 1572 1574 1575 1577 1579 1580 1581 1582 1583 1584 1585 1586 1587 1587 1589 1590 1590 1591 1592 1593 1594 1594 1595 1596 1596 1597 1597 1598 1598 1599 1599 1600 1600 1601 1601 1602 1602 1603 1604 1605 1606 1607 1608 1608 1609 1609 1610 1610 1609 1609 1609 1609 1609 1609 1610 1610 1609 1608 1608 1607 1606 1605 1604 1603 1603 1603 1603 1602 1601 1599
1545 1546 1547 1549 1551 1553 1555 1557 1559 1561 1562 1564 1566 1567 1569 1571 1572 1573 1575 1577 1578 1579 1580 1581 1582 1582 1583 1585 1585 1586 1587 1588 1589 1590 1591 1592 1592 1593 1594 1595 1595 1596 1596 1597 1597 1598 1598 1599 1599 1600 1601 1601 1601 1602 1603 1604 1605 1606 1607 1607 1607 1608 1608 1608 1608 1607 1608 1608 1608 1608 1608 1607 1606 1606 1605 1605 1604 1603 1602 1602 1602 1601 1600 1600 1600
1543 1544 1546 1547 1548 1550 1552 1554 1557 1558 1560 1562 1563 1565 1567 1569 1570 1570 1572 1574 1576 1577 1577 1578 1580 1580 1581 1582 1583 1584 1585 1586 1587 1588 1589 1590 1591 1591 1592 1593 1594 1594 1595 1595 1596 1596 1597 1597 1598 1598 1599 1600 1600 1600 1601 1602 1603 1604 1605 1605 1606 1606 1606 1607 1606 1606 1606 1606 1606 1606 1605 1605 1605 1604 1604 1604 1603 1602 1602 1600 1600 1599 1598 1598 1599
1541 1541 1544 1545 1547 1548 1550 1551 1554 1555 1557 1559 1561 1563 1565 1566 1568 1568 1570 1571 1573 1575 1575 1575 1577 1577 1578 1579 1580 1581 1582 1583 1584 1586 1587 1588 1589 1590 1590 1591 1592 1592 1593 1593 1594 1594 1595 1595 1596 1597 1597 1598 1598 1598 1599 1600 1601 1601 1602 1603 1604 1604 1604 1604 1604 1605 1604 1604 1604 1604 1604 1603 1603 1603 1602 1602 1601 1601 1600 1600 1599 1598 1597 1597 1597
1538 1539 1541 1543 1544 1546 1548 1549 1551 1553 1554 1556 1558 1560 1562 1564 1566 1566 1567 1569 1570 1572 1573 1573 1574 1574 1575 1577 1578 1579 1580 1581 1582 1583 1584 1586 1587 1588 1589 1590 1590 1591 1591 1592 1592 1593 1593 1594 1594 1594 1595 1595 1596 1596 1597 1598 1598 1599 1600 1600 1601 1602 1602 1602 1603 1603 1603 1603 1602 1602 1602 1602 1602 1602 1601 1600 1600 1599 1598 1598 1597 1597 1597 1596 1595
1536 1537 1539 1540 1541 1543 1545 1547 1549 1550 1552 1553 1555 1557 1559 1561 1563 1564 1565 1566 1567 1569 1570 1571 1571 1572 1573 1574 1575 1577 1577 1578 1579 1580 1582 1583 1585 1586 1587 1588 1589 1589 1590 1590 1591 1591 1592 1592 1592 1592 1593 1593 1593 1594 1595 1596 1596 1597 1597 1598 1598 1599 1600 1600 1601 1601 1601 1601 1601 1601 1601 1601 1600 1600 1600 1599 1598 1598 1597 1597 1597 1596 1596 1595 1594
1535 1536 1537 1538 1540 1542 1544 1545 1546 1547 1549 1550 1552 1553 1555 1558 1559 1561 1562 1563 1565 1566 1568 1569 1570 1570 1570 1571 1572 1574 1575 1575 1576 1577 1579 1580 1582 1584 1584 1585 1586 1587 1588 1588 1589 1589 1590 1590 1591 1591 1591 1590 1591 1592 1593 1594 1594 1595 1595 1596 1596 1597 1597 1598 1598 1599 1599 1599 1599 1599 1599 1598 1598 1598 1598 1598 1597 1597 1596 1596 1596 1595 1594 1594 1593
1535 1535 1536 1538 1540 1542 1543 1543 1543 1544 1545 1547 1548 1550 1551 1554 1556 1557 1559 1560 1562 1564 1565 1566 1567 1568 1568 1568 1569 1571 1572 1573 1573 1574 1576 1577 1579 1581 1582 1583 1584 1585 1586 1586 1587 1587 1587 1588 1588 1589 1589 1588 1588 1589 1590 1591 1591 1592 1593 1593 1594 1594 1595 1595 1596 1596 1596 1596 1596 1597 1597 1596 1597 1597 1596 1596 1596 1596 1596 1595 1594 1593 1593 1592 1591
1535 1535 1536 1537 1539 1541 1541 1541 1540 1540 1541 1542 1544 1546 1547 1550 1552 1553 1555 1557 1559 1560 1562 1563 1564 1565 1566 1566 1567 1567 1568 1570 1570 1571 1573 1575 1576 1578 1580 1581 1581 1582 1583 1583 1584 1585 1585 1586 1586 1586 1587 1586 1586 1586 1587 1588 1588 1589 1590 1591 1591 1592 1592 1593 1593 1594 1594 1594 1594 1594 1595 1595 1595 1595 1595 1595 1595 1595 1594 1594 1593 1592 1591 1590 1589
1534 1535 1535 1536 1538 1539 1539 1539 1538 1537 1537 1538 1540 1541 1543 1545 1547 1549 1551 1553 1554 1556 1558 1560 1561 1562 1564 1564 1565 1565 1565 1566 1567 1568 1570 1572 1574 1576 1577 1578 1579 1580 1580 1580 1581 1581 1582 1583 1584 1584 1584 1584 1584 1583 1584 1585 1586 1586 1587 1588 1588 1589 1589 1590 1591 1591 1591 1591 1591 1592 1592 1592 1593 1593 1593 1593 1593 1593 1592 1592 1591 1590 1589 1588 1587
1533 1534 1534 1537 1539 1539 1539 1538 1537 1536 1535 1535 1536 1537 1539 1541 1542 1545 1547 1549 1551 1552 1553 1555 1557 1558 1560 1561 1562 1563 1563 1563 1564 1565 1567 1568 1571 1573 1575 1576 1577 1577 1578 1578 1578 1579 1579 1580 1581 1581 1582 1582 1581 1581 1581 1582 1583 1583 1584 1584 1585 1585 1586 1586 1587 1588 1588 1588 1588 1588 1589 1589 1590 1590 1590 1590 1590 1590 1589 1589 1588 1588 1587 1586 1585
1533 1533 1534 1536 1538 1540 1539 1537 1535 1534 1533 1533 1534 1534 1536 1537 1539 1541 1543 1545 1547 1548 1550 1551 1553 1554 1556 1557 1559 1560 1561 1561 1561 1562 1564 1565 1567 1570 1572 1573 1574 1575 1575 1575 1576 1576 1576 1577 1577 1578 1579 1579 1579 1579 1578 1578 1579 1580 1581 1581 1581 1582 1582 1583 1584 1584 1585 1585 1584 1584 1585 1586 1586 1586 1587 1587 1587 1587 1586 1586 1586 1585 1584 1583 1582
1533 1533 1534 1534 1535 1537 1538 1537 1534 1533 1532 1532 1532 1532 1534 1535 1537 1539 1541 1544 1545 1546 1547 1548 1549 1550 1552 1553 1555 1556 1558 1559 1559 1559 1560 1562 1564 1567 1569 1570 1571 1572 1572 1572 1573 1573 1574 1574 1574 1575 1575 1576 1577 1577 1577 1576 1576 1577 1577 1578 1578 1578 1579 1579 1580 1581 1581 1581 1581 1581 1582 1582 1583 1583 1584 1584 1584 1584 1583 1583 1583 1582 1582 1581 1579
1533 1533 1532 1532 1532 1533 1535 1536 1535 1532 1531 1530 1530 1531 1533 1534 1536 1538 1540 1542 1543 1544 1545 1546 1547 1548 1549 1550 1551 1552 1554 1556 1557 1558 1559 1560 1562 1564 1565 1567 1568 1568 1569 1569 1570 1570 1570 1571 1571 1572 1572 1572 1573 1574 1574 1574 1574 1574 1574 1574 1575 1575 1575 1575 1576 1577 1577 1577 1577 1578 1578 1579 1580 1580 1580 1581 1581 1581 1581 1580 1580 1579 1578 1577 1576
1533 1532 1530 1530 1529 1529 1530 1532 1532 1532 1530 1529 1529 1529 1531 1533 1535 1536 1538 1540 1541 1541 1543 1544 1546 1547 1548 1548 1549 1550 1551 1553 1554 1555 1557 1558 1559 1561 1562 1563 1564 1564 1565 1566 1566 1567 1567 1567 1568 1568 1569 1569 1569 1570 1571 1571 1571 1571 1571 1571 1571 1571 1571 1572 1572 1573 1573 1574 1574 1574 1575 1576 1576 1576 1577 1577 1578 1578 1578 1577 1576 1577 1576 1575 1574
1534 1532 1531 1529 1528 1528 1528 1529 1530 1530 1529 1528 1528 1528 1530 1532 1533 1534 1536 1538 1539 1540 1541 1542 1544 1545 1546 1547 1548 1548 1550 1552 1553 1553 1554 1556 1557 1558 1559 1560 1561 1561 1561 1562 1563 1563 1563 1564 1564 1565 1565 1565 1566 1566 1567 1567 1568 1568 1568 1568 1568 1568 1568 1569 1570 1570 1569 1570 1570 1571 1571 1571 1572 1573 1573 1573 1574 1574 1574 1573 1573 1574 1574 1572 1572
1535 1534 1532 1531 1530 1530 1530 1530 1530 1529 1528 1527 1527 1528 1529 1530 1531 1532 1534 1535 1535 1536 1537 1538 1540 1541 1542 1543 1545 1546 1548 1551 1552 1552 1553 1554 1555 1557 1558 1558 1558 1558 1558 1559 1559 1560 1560 1560 1561 1561 1561 1562 1562 1562 1563 1563 1564 1564 1564 1565 1564 1563 1564 1566 1567 1567 1567 1566 1566 1566 1567 1567 1568 1568 1568 1569 1570 1570 1569 1569 1570 1570 1570 1569 1569
1535 1534 1533 1531 1530 1530 1531 1530 1529 1527 1526 1525 1526 1527 1528 1528 1529 1530 1532 1533 1533 1532 1533 1535 1536 1536 1538 1539 1540 1541 1544 1547 1550 1551 1552 1553 1554 1555 1556 1556 1555 1556 1556 1556 1556 1556 1556 1557 1557 1557 1557 1558 1558 1559 1559 1559 1560 1560 1560 1560 1559 1559 1561 1563 1563 1564 1564 1564 1563 1563 1563 1563 1563 1564 1564 1565 1565 1565 1565 1565 1566 1566 1565 1565 1566
1534 1534 1532 1530 1529 1529 1529 1528 1526 1525 1525 1524 1525 1526 1526 1526 1528 1529 1530 1531 1531 1531 1531 1532 1533 1534 1536 1537 1537 1537 1539 1542 1545 1547 1549 1550 1552 1553 1553 1552 1553 1553 1553 1553 1553 1553 1553 1553 1552 1553 1553 1554 1555 1555 1555 1555 1556 1556 1556 1555 1555 1556 1558 1559 1559 1560 1560 1560 1560 1560 1559 1559 1559 1559 1560 1560 1560 1561 1561 1560 1561 1562 1562 1561 1562
1532 1532 1531 1530 1529 1528 1527 1527 1526 1526 1525 1525 1525 1524 1524 1524 1525 1526 1527 1528 1529 1529 1529 1529 1530 1531 1533 1534 1534 1535 1537 1539 1540 1540 1541 1542 1545 1548 1549 1549 1550 1551 1550 1550 1550 1550 1550 1550 1550 1549 1549 1550 1551 1551 1551 1551 1552 1552 1551 1551 1552 1553 1554 1554 1555 1556 1556 1556 1556 1557 1556 1556 1556 1556 1556 1557 1557 1557 1557 1556 1556 1556 1557 1557 1558
1530 1530 1530 1529 1528 1527 1527 1526 1526 1527 1526 1525 1524 1523 1523 1523 1523 1523 1523 1524 1525 1526 1526 1527 1527 1527 1528 1529 1530 1532 1534 1535 1536 1536 1536 1535 1535 1537 1540 1543 1547 1549 1548 1547 1546 1547 1548 1548 1548 1547 1547 1546 1547 1547 1547 1547 1547 1547 1547 1548 1549 1550 1550 1550 1550 1551 1551 1552 1552 1552 1552 1552 1552 1553 1553 1553 1554 1555 1555 1555 1554 1553 1552 1553 1553
1529 1528 1528 1527 1527 1527 1526 1526 1526 1526 1526 1525 1523 1522 1521 1521 1521 1520 1519 1520 1521 1522 1523 1524 1524 1524 1525 1526 1526 1528 1529 1531 1532 1532 1533 1532 1532 1531 1531 1533 1538 1543 1545 1545 1545 1545 1546 1546 1546 1546 1545 1544 1543 1543 1543 1543 1542 1542 1543 1545 1545 1546 1545 1545 1545 1545 1546 1546 1546 1546 1547 1547 1548 1548 1549 1550 1550 1551 1552 1552 1552 1551 1550 1549 1549
1528 1527 1527 1526 1526 1526 1525 1525 1525 1526 1525 1524 1522 1521 1520 1520 1520 1519 1517 1517 1518 1519 1519 1521 1521 1521 1521 1521 1522 1524 1526 1527 1527 1527 1528 1529 1530 1530 1529 1529 1531 1535 1538 1541 1543 1543 1543 1544 1544 1544 1544 1542 1541 1541 1539 1538 1538 1538 1539 1540 1541 1540 1540 1540 1540 1540 1539 1539 1540 1540 1541 1542 1542 1543 1544 1546 1547 1547 1547 1548 1548 1548 1547 1546 1545
1527 1527 1526 1526 1525 1525 1524 1524 1524 1524 1524 1523 1522 1521 1520 1519 1518 1518 1517 1516 1517 1517 1517 1517 1518 1519 1518 1518 1519 1520 1521 1523 1523 1523 1523 1525 1526 1527 1528 1528 1529 1530 1531 1534 1537 1539 1540 1541 1541 1541 1541 1540 1539 1538 1536 1534 1534 1534 1534 1535 1535 1534 1534 1534 1534 1534 1533 1533 1534 1534 1535 1536 1538 1539 1540 1541 1541 1542 1543 1543 1543 1543 1543 1543 1542
1527 1526 1526 1525 1525 1524 1524 1523 1522 1522 1522 1522 1522 1521 1520 1518 1517 1516 1516 1516 1515 1515 1514 1514 1515 1516 1515 1515 1516 1516 1517 1518 1519 1519 1520 1521 1522 1523 1523 1524 1525 1527 1527 1528 1530 1533 1536 1537 1537 1537 1537 1537 1536 1535 1533 1532 1531 1530 1529 1529 1529 1528 1528 1528 1528 1528 1528 1528 1529 1529 1531 1532 1533 1534 1536 1536 1536 1536 1538 1539 1539 1538 1539 1539 1538
1526 1525 1524 1524 1524 1524 1523 1522 1521 1521 1521 1520 1520 1519 1519 1518 1517 1515 1514 1513 1512 1511 1511 1511 1511 1512 1513 1513 1513 1513 1514 1514 1515 1516 1516 1516 1516 1517 1517 1518 1520 1522 1523 1524 1523 1525 1530 1534 1535 1534 1534 1534 1532 1531 1530 1528 1527 1525 1524 1523 1523 1523 1523 1524 1523 1523 1523 1524 1524 1525 1526 1528 1529 1530 1531 1531 1531 1531 1532 1533 1534 1534 1534 1534 1534
1525 1523 1523 1523 1523 1523 1522 1520 1519 1519 1518 1517 1517 1517 1516 1516 1515 1513 1511 1510 1508 1508 1508 1508 1509 1509 1509 1509 1510 1510 1511 1512 1512 1513 1512 1512 1512 1512 1513 1514 1516 1517 1519 1519 1518 1519 1522 1526 1528 1529 1529 1529 1528 1526 1526 1525 1523 1522 1521 1519 1518 1518 1518 1518 1517 1517 1518 1519 1519 1520 1521 1522 1523 1525 1526 1526 1527 1527 1528 1528 1528 1529 1529 1530 1529
1523 1522 1522 1522 1522 1521 1519 1518 1517 1516 1515 1515 1514 1513 1513 1513 1512 1511 1509 1507 1506 1506 1506 1506 1507 1506 1505 1505 1506 1506 1507 1508 1509 1509 1509 1509 1509 1509 1510 1511 1512 1513 1515 1516 1515 1515 1516 1518 1521 1522 1523 1524 1524 1522 1521 1521 1519 1518 1518 1516 1515 1514 1513 1512 1512 1512 1513 1514 1515 1515 1516 1517 1518 1520 1521 1521 1522 1523 1524 1524 1524 1524 1524 1524 1524
1521 1521 1520 1520 1519 1518 1517 1516 1515 1514 1513 1512 1511 1510 1510 1509 1509 1509 1507 1505 1504 1504 1504 1504 1505 1504 1502 1501 1501 1502 1503 1504 1505 1505 1505 1505 1506 1506 1507 1508 1508 1509 1511 1513 1513 1512 1511 1512 1516 1518 1519 1520 1519 1517 1515 1515 1515 1515 1515 1514 1512 1511 1509 1509 1509 1509 1509 1509 1510 1511 1512 1512 1513 1514 1515 1516 1517 1519 1519 1519 1519 1519 1519 1519 1519
1519 1519 1519 1518 1517 1515 1515 1514 1513 1512 1511 1510 1509 1508 1507 1506 1505 1505 1505 1503 1501 1501 1501 1501 1502 1502 1501 1499 1497 1497 1498 1498 1499 1500 1500 1501 1502 1503 1504 1505 1506 1506 1508 1509 1509 1508 1506 1507 1510 1513 1515 1516 1515 1512 1510 1509 1509 1510 1510 1510 1509 1508 1506 1505 1505 1506 1506 1505 1505 1506 1506 1507 1507 1508 1509 1511 1512 1513 1514 1514 1513 1513 1513 1513 1513
1516 1516 1516 1515 1514 1513 1512 1511 1511 1510 1509 1508 1507 1506 1505 1504 1503 1502 1501 1501 1499 1498 1497 1498 1498 1499 1499 1498 1497 1495 1494 1494 1494 1495 1495 1496 1498 1498 1499 1501 1501 1502 1502 1503 1503 1502 1503 1503 1504 1506 1509 1510 1509 1507 1505 1504 1504 1505 1505 1505 1505 1505 1504 1503 1502 1502 1502 1501 1501 1501 1500 1501 1501 1502 1503 1504 1505 1506 1507 1507 1507 1507 1508 1507 1507
1514 1513 1513 1513 1512 1511 1510 1509 1509 1509 1508 1507 1505 1504 1503 1502 1500 1499 1498 1498 1497 1496 1496 1496 1495 1495 1495 1496 1496 1494 1492 1491 1490 1490 1491 1491 1492 1493 1494 1496 1496 1496 1497 1497 1497 1496 1497 1498 1499 1500 1502 1503 1501 1500 1500 1499 1500 1501 1501 1501 1501 1501 1501 1500 1499 1498 1497 1497 1497 1496 1496 1496 1497 1497 1497 1498 1498 1499 1500 1500 1501 1502 1502 1502 1501
1511 1511 1511 1511 1511 1510 1508 1508 1507 1506 1506 1505 1503 1501 1500 1499 1498 1497 1496 1495 1494 1494 1495 1495 1495 1493 1492 1492 1492 1492 1490 1489 1488 1487 1487 1487 1487 1488 1489 1490 1491 1491 1491 1491 1491 1491 1492 1493 1493 1494 1496 1496 1495 1494 1494 1495 1496 1497 1497 1497 1497 1497 1497 1497 1496 1494 1494 1493 1492 1491 1491 1492 1492 1493 1493 1493 1494 1494 1495 1495 1496 1496 1497 1496 1496
1509 1509 1509 1509 1509 1508 1507 1505 1504 1503 1503 1501 1500 1499 1498 1497 1496 1495 1494 1493 1492 1492 1492 1493 1493 1492 1490 1489 1489 1487 1487 1486 1485 1484 1484 1484 1483 1483 1483 1484 1485 1485 1485 1485 1485 1486 1486 1487 1488 1489 1490 1490 1490 1489 1490 1490 1491 1492 1493 1493 1493 1493 1492 1492 1492 1491 1490 1489 1488 1487 1487 1488 1488 1489 1490 1490 1490 1491 1491 1490 1490 1490 1491 1492 1492
1507 1507 1507 1507 1506 1505 1504 1502 1501 1500 1499 1497 1496 1495 1495 1495 1494 1494 1492 1491 1490 1489 1489 1488 1488 1488 1489 1488 1486 1483 1482 1483 1482 1481 1481 1480 1480 1480 1480 1479 1480 1480 1480 1480 1480 1481 1481 1482 1483 1484 1484 1485 1485 1484 1485 1486 1486 1487 1488 1488 1488 1488 1488 1488 1487 1487 1486 1485 1484 1484 1484 1484 1484 1484 1485 1485 1486 1486 1486 1486 1486 1486 1487 1488 1488
1505 1505 1505 1504 1503 1502 1500 1499 1497 1497 1495 1494 1494 1493 1493 1493 1493 1491 1490 1489 1487 1486 1486 1485 1485 1485 1485 1485 1482 1479 1477 1477 1477 1477 1477 1477 1477 1477 1476 1476 1476 1476 1476 1475 1476 1476 1477 1478 1479 1479 1479 1480 1480 1480 1480 1481 1482 1483 1483 1484 1484 1483 1483 1483 1483 1482 1481 1480 1480 1480 1480 1480 1479 1479 1480 1479 1480 1480 1480 1481 1481 1482 1483 1483 1483
1503 1503 1503 1501 1499 1498 1497 1496 1495 1494 1493 1492 1492 1491 1491 1491 1490 1489 1488 1487 1486 1484 1483 1482 1481 1481 1481 1480 1477 1474 1473 1472 1472 1472 1474 1474 1474 1474 1474 1473 1473 1473 1472 1472 1472 1473 1473 1474 1475 1475 1475 1476 1476 1475 1475 1476 1477 1478 1478 1479 1478 1478 1478 1478 1477 1476 1475 1474 1475 1475 1475 1474 1474 1474 1475 1474 1474 1474 1475 1476 1476 1476 1477 1478 1478
1501 1500 1499 1498 1496 1495 1494 1493 1492 1492 1490 1489 1489 1489 1489 1488 1488 1487 1486 1484 1483 1482 1480 1478 1478 1477 1477 1475 1472 1471 1470 1469 1468 1468 1469 1470 1471 1471 1471 1471 1472 1472 1470 1469 1469 1469 1470 1470 1471 1471 1471 1471 1471 1471 1471 1471 1471 1472 1473 1473 1473 1473 1473 1473 1472 1471 1470 1469 1469 1470 1469 1469 1469 1470 1469 1469 1468 1469 1469 1470 1470 1470 1471 1471 1472
1497 1496 1495 1494 1493 1492 1491 1491 1490 1489 1488 1487 1487 1486 1486 1485 1484 1484 1483 1481 1480 1478 1477 1476 1475 1474 1472 1470 1469 1469 1468 1467 1465 1465 1465 1465 1466 1467 1467 1468 1468 1468 1467 1466 1465 1466 1466 1466 1466 1467 1467 1467 1467 1467 1467 1467 1467 1467 1467 1467 1467 1467 1467 1467 1467 1466 1465 1465 1465 1465 1464 1464 1464 1464 1464 1463 1464 1464 1464 1464 1465 1465 1464 1465 1466
1494 1493 1492 1491 1490 1489 1489 1489 1488 1487 1485 1485 1484 1484 1483 1482 1481 1480 1479 1478 1476 1475 1474 1473 1472 1470 1468 1466 1465 1465 1465 1464 1463 1462 1461 1460 1460 1461 1462 1462 1462 1462 1461 1460 1460 1460 1460 1460 1460 1461 1461 1461 1462 1462 1462 1462 1462 1462 1462 1462 1463 1463 1462 1461 1461 1461 1460 1460 1460 1460 1460 1460 1460 1459 1459 1459 1459 1459 1459 1459 1459 1459 1459 1459 1460
1492 1491 1489 1489 1488 1487 1486 1486 1485 1484 1482 1481 1481 1481 1480 1479 1478 1477 1476 1474 1473 1472 1471 1469 1468 1467 1464 1462 1461 1461 1461 1460 1459 1458 1456 1455 1454 1455 1457 1457 1457 1457 1456 1455 1455 1455 1455 1455 1455 1455 1455 1455 1455 1456 1456 1456 1457 1457 1457 1457 1458 1458 1458 1457 1457 1456 1456 1455 1455 1455 1455 1455 1455 1455 1454 1454 1453 1453 1454 1453 1453 1452 1453 1454 1454
1490 1488 1487 1486 1485 1484 1483 1483 1482 1481 1479 1478 1478 1477 1477 1476 1475 1474 1473 1472 1471 1469 1468 1466 1464 1463 1461 1459 1457 1457 1456 1456 1455 1453 1452 1451 1449 1449 1450 1451 1452 1452 1451 1450 1450 1450 1450 1450 1450 1450 1451 1451 1451 1451 1451 1452 1452 1452 1452 1452 1452 1453 1453 1452 1452 1451 1450 1450 1449 1449 1449 1448 1448 1448 1449 1449 1448 1448 1447 1447 1447 1446 1446 1447 1448
1488 1486 1485 1483 1483 1482 1480 1480 1479 1477 1476 1475 1474 1474 1473 1473 1472 1471 1470 1469 1468 1466 1464 1463 1461 1459 1458 1456 1454 1452 1451 1451 1450 1449 1448 1447 1445 1445 1445 1445 1446 1446 1446 1445 1445 1445 1446 1446 1445 1445 1445 1446 1446 1447 1447 1447 1447 1448 1447 1447 1447 1448 1447 1447 1446 1445 1445 1445 1444 1443 1443 1442 1442 1442 1443 1444 1444 1443 1441 1442 1442 1441 1440 1440 1440
1486 1484 1482 1481 1480 1479 1477 1476 1475 1475 1474 1473 1472 1471 1470 1470 1469 1469 1468 1466 1465 1463 1461 1459 1458 1456 1454 1452 1450 1448 1447 1446 1446 1445 1444 1443 1442 1441 1440 1440 1440 1440 1440 1440 1440 1440 1440 1441 1440 1440 1440 1441 1441 1441 1442 1442 1442 1442 1443 1443 1443 1443 1442 1442 1441 1441 1441 1441 1440 1439 1438 1438 1437 1437 1438 1438 1438 1437 1436 1436 1437 1436 1435 1435 1433
1483 1482 1480 1479 1477 1476 1475 1473 1472 1472 1471 1470 1469 1468 1467 1466 1466 1465 1465 1464 1462 1461 1458 1457 1455 1453 1451 1449 1447 1445 1443 1442 1441 1441 1440 1439 1437 1436 1436 1435 1434 1435 1435 1435 1435 1435 1435 1435 1435 1435 1435 1435 1435 1435 1436 1436 1436 1437 1437 1437 1437 1437 1437 1436 1436 1436 1436 1435 1434 1434 1434 1433 1432 1432 1432 1432 1432 1431 1430 1431 1431 1431 1431 1430 1428
1481 1480 1478 1476 1475 1473 1472 1471 1470 1469 1468 1467 1466 1465 1464 1463 1463 1462 1462 1461 1460 1458 1456 1455 1453 1450 1447 1446 1444 1442 1440 1439 1437 1436 1436 1435 1433 1432 1431 1429 1428 1429 1430 1430 1430 1430 1430 1430 1430 1430 1429 1429 1429 1430 1430 1430 1430 1430 1430 1430 1431 1431 1431 1430 1430 1430 1430 1429 1428 1428 1427 1427 1426 1427 1427 1426 1426 1425 1425 1425 1425 1425 1425 1424 1423
1479 1478 1476 1474 1472 1471 1470 1469 1467 1466 1465 1464 1463 1462 1461 1460 1460 1459 1458 1458 1457 1455 1454 1452 1450 1447 1445 1443 1441 1439 1437 1436 1434 1432 1432 1431 1430 1429 1427 1425 1424 1425 1426 1426 1425 1424 1424 1425 1425 1424 1424 1425 1425 1424 1424 1424 1424 1424 1424 1424 1424 1424 1424 1424 1423 1423 1423 1422 1421 1421 1420 1420 1420 1420 1420 1420 1419 1419 1419 1419 1419 1419 1419 1418 1417
1477 1475 1474 1472 1470 1469 1468 1467 1465 1464 1463 1461 1460 1459 1458 1458 1457 1456 1455 1455 1454 1453 1451 1450 1447 1445 1442 1440 1438 1436 1434 1432 1431 1429 1429 1428 1427 1425 1424 1422 1422 1422 1423 1422 1420 1419 1419 1420 1420 1421 1421 1420 1420 1420 1419 1419 1419 1419 1419 1419 1418 1418 1418 1417 1417 1416 1416 1415 1414 1414 1413 1413 1413 1413 1412 1413 1412 1412 1412 1412 1412 1412 1412 1411 1410
1474 1473 1472 1470 1468 1467 1465 1464 1463 1462 1461 1459 1458 1457 1456 1455 1454 1453 1452 1452 1451 1450 1449 1447 1445 1443 1440 1438 1436 1434 1432 1431 1429 1428 1427 1426 1425 1423 1422 1421 1420 1421 1421 1419 1416 1415 1416 1417 1417 1417 1417 1417 1416 1416 1416 1415 1415 1415 1414 1414 1413 1412 1411 1411 1410 1410 1409 1408 1407 1406 1406 1405 1405 1405 1405 1405 1405 1405 1404 1404 1405 1405 1405 1404 1404